Date String (YYYY-MM-DD hh:mm:ss) UTC,Instrument flags,Ambient pressure (hPa),Sample flow (lpm),Bypass flow (lpm),Sample temperature (°C),Ambient temperature (°C),ASC tube jacket temperature (°C),LED temperature (°C),Box temperature (°C),Sample RH (%),Span deviation,Mass concentration (μg/m³),Mass concentration (μg/m³),Mass concentration (μg/m³)
DateTimeUTC,F1_M11,P_M11,Q1_M11,Q2_M11,T1_M11,T2_M11,T3_M11,T4_M11,T5_M11,U1_M11,ZSPAN_M11,X0_M11,X2_M11,X1_M11
2021-12-11 00:00:00,,0819.5,5.00,0.00,22.2,21.4,00.0,31.3,23.7,05.6,0000.0,0003.82,0001.90,0001.45
2021-12-11 00:01:00,,0819.5,5.00,0.00,22.2,21.3,00.0,31.3,23.7,05.6,0000.0,0003.79,0001.89,0001.44
2021-12-11 00:02:00,,0819.6,5.01,0.00,22.1,21.2,00.0,31.3,23.6,05.7,0000.0,0003.09,0001.92,0001.44
2021-12-11 00:03:00,,0819.7,4.99,0.00,22.1,21.1,00.0,31.3,23.6,05.8,0000.0,0003.12,0001.92,0001.42
2021-12-11 00:04:00,,0819.7,5.01,0.00,22.1,21.1,00.0,31.3,23.5,05.8,0000.0,0003.23,0001.94,0001.43
2021-12-11 00:05:00,,0819.8,5.01,0.00,22.0,21.1,00.0,31.3,23.5,05.8,0000.0,0003.96,0001.96,0001.43
2021-12-11 00:06:00,,0819.8,4.98,0.00,22.1,21.8,00.0,31.3,23.8,05.8,0000.0,0004.43,0002.00,0001.43
2021-12-11 00:07:00,,0819.9,5.01,0.00,22.3,22.6,00.0,31.3,24.1,05.7,0000.0,0004.50,0002.01,0001.42
2021-12-11 00:08:00,,0819.9,5.00,0.00,22.4,23.2,00.0,31.4,24.4,05.8,0000.0,0004.75,0002.03,0001.43
2021-12-11 00:09:00,,0819.9,5.01,0.00,22.5,23.0,00.0,31.4,24.4,05.7,0000.0,0004.73,0002.01,0001.43
2021-12-11 00:10:00,,0820.0,5.00,0.00,22.5,22.7,00.0,31.4,24.3,05.7,0000.0,0004.78,0002.00,0001.43
2021-12-11 00:11:00,,0819.9,4.99,0.00,22.4,22.4,00.0,31.4,24.1,05.7,0000.0,0004.92,0001.99,0001.43
2021-12-11 00:12:00,,0820.0,5.00,0.00,22.4,22.1,00.0,31.4,24.0,05.7,0000.0,0005.18,0002.00,0001.43
2021-12-11 00:13:00,,0820.1,5.01,0.00,22.3,21.9,00.0,31.4,23.9,05.7,0000.0,0005.02,0001.95,0001.43
2021-12-11 00:14:00,,0820.0,5.00,0.00,22.3,21.8,00.0,31.4,23.8,05.6,0000.0,0004.96,0001.94,0001.43
2021-12-11 00:15:00,,0820.0,4.99,0.00,22.3,21.6,00.0,31.4,23.7,05.6,0000.0,0005.02,0001.96,0001.43
2021-12-11 00:16:00,,0820.1,5.01,0.00,22.2,21.5,00.0,31.4,23.7,05.7,0000.0,0004.48,0001.95,0001.42
2021-12-11 00:17:00,,0820.2,4.99,0.00,22.2,21.4,00.0,31.3,23.6,05.7,0000.0,0003.85,0001.93,0001.42
2021-12-11 00:18:00,,0820.2,5.01,0.00,22.2,21.2,00.0,31.3,23.6,05.8,0000.0,0003.72,0001.90,0001.42
2021-12-11 00:19:00,,0820.2,4.99,0.00,22.1,21.1,00.0,31.3,23.5,05.8,0000.0,0003.49,0001.88,0001.40
2021-12-11 00:20:00,,0820.2,5.02,0.00,22.1,21.1,00.0,31.3,23.5,05.8,0000.0,0003.42,0001.88,0001.40
2021-12-11 00:21:00,,0820.2,4.99,0.00,22.0,21.1,00.0,31.3,23.5,05.8,0000.0,0003.26,0001.83,0001.39
2021-12-11 00:22:00,,0820.3,4.99,0.00,22.0,21.2,00.0,31.2,23.5,05.8,0000.0,0003.03,0001.79,0001.37
2021-12-11 00:23:00,,0820.3,5.01,0.00,22.1,21.9,00.0,31.3,23.8,05.8,0000.0,0002.68,0001.76,0001.37
2021-12-11 00:24:00,,0820.2,5.00,0.00,22.2,22.7,00.0,31.3,24.2,05.7,0000.0,0002.69,0001.76,0001.36
2021-12-11 00:25:00,,0820.3,4.99,0.00,22.4,23.3,00.0,31.3,24.4,05.7,0000.0,0002.62,0001.72,0001.33
2021-12-11 00:26:00,,0820.3,5.00,0.00,22.5,23.2,00.0,31.4,24.5,05.7,0000.0,0002.52,0001.68,0001.33
2021-12-11 00:27:00,,0820.3,4.99,0.00,22.5,22.9,00.0,31.4,24.3,05.8,0000.0,0002.49,0001.68,0001.34
2021-12-11 00:28:00,,0820.4,4.99,0.00,22.5,22.6,00.0,31.4,24.1,05.8,0000.0,0002.47,0001.68,0001.34
2021-12-11 00:29:00,,0820.4,5.01,0.00,22.4,22.3,00.0,31.4,24.0,05.8,0000.0,0002.54,0001.70,0001.34
2021-12-11 00:30:00,,0820.4,4.99,0.00,22.4,22.0,00.0,31.4,23.9,05.9,0000.0,0002.76,0001.71,0001.35
2021-12-11 00:31:00,,0820.4,5.00,0.00,22.3,21.8,00.0,31.4,23.9,05.9,0000.0,0002.93,0001.71,0001.35
2021-12-11 00:32:00,,0820.4,5.00,0.00,22.3,21.6,00.0,31.4,23.8,05.9,0000.0,0002.94,0001.71,0001.33
2021-12-11 00:33:00,,0820.5,5.00,0.00,22.2,21.4,00.0,31.4,23.7,05.9,0000.0,0002.92,0001.70,0001.32
2021-12-11 00:34:00,,0820.5,4.99,0.00,22.2,21.3,00.0,31.3,23.6,05.9,0000.0,0003.01,0001.72,0001.31
2021-12-11 00:35:00,,0820.6,5.01,0.00,22.1,21.2,00.0,31.3,23.6,05.9,0000.0,0003.06,0001.75,0001.32
2021-12-11 00:36:00,,0820.6,5.00,0.00,22.1,21.1,00.0,31.3,23.5,06.0,0000.0,0003.84,0001.83,0001.34
2021-12-11 00:37:00,,0820.6,5.00,0.00,22.1,21.0,00.0,31.3,23.5,06.0,0000.0,0005.07,0001.86,0001.34
2021-12-11 00:38:00,,0820.6,5.00,0.00,22.0,21.0,00.0,31.2,23.4,06.1,0000.0,0005.03,0001.85,0001.33
2021-12-11 00:39:00,,0820.6,4.99,0.00,22.0,20.9,00.0,31.2,23.4,06.1,0000.0,0005.03,0001.85,0001.31
2021-12-11 00:40:00,,0820.6,5.00,0.00,22.0,21.6,00.0,31.2,23.7,06.1,0000.0,0004.97,0001.81,0001.30
2021-12-11 00:41:00,,0820.6,5.00,0.00,22.2,22.4,00.0,31.3,24.1,06.1,0000.0,0004.75,0001.79,0001.29
2021-12-11 00:42:00,,0820.6,4.99,0.00,22.3,23.1,00.0,31.3,24.3,06.1,0000.0,0004.66,0001.79,0001.28
2021-12-11 00:43:00,,0820.7,5.00,0.00,22.4,23.0,00.0,31.3,24.4,06.0,0000.0,0004.72,0001.79,0001.29
2021-12-11 00:44:00,,0820.6,5.00,0.00,22.4,22.6,00.0,31.3,24.2,06.1,0000.0,0004.80,0001.82,0001.29
2021-12-11 00:45:00,,0820.7,5.01,0.00,22.4,22.3,00.0,31.3,24.1,06.1,0000.0,0004.84,0001.83,0001.29
2021-12-11 00:46:00,,0820.7,5.00,0.00,22.3,22.0,00.0,31.3,23.9,06.1,0000.0,0004.87,0001.82,0001.29
2021-12-11 00:47:00,,0820.8,5.00,0.00,22.3,21.7,00.0,31.3,23.9,06.2,0000.0,0004.52,0001.79,0001.27
2021-12-11 00:48:00,,0820.9,5.00,0.00,22.2,21.5,00.0,31.3,23.7,06.2,0000.0,0002.98,0001.74,0001.26
2021-12-11 00:49:00,,0820.8,4.99,0.00,22.2,21.3,00.0,31.3,23.7,06.2,0000.0,0003.01,0001.73,0001.26
2021-12-11 00:50:00,,0820.9,5.00,0.00,22.1,21.2,00.0,31.3,23.6,06.3,0000.0,0002.96,0001.71,0001.27
2021-12-11 00:51:00,,0820.9,5.01,0.00,22.1,21.1,00.0,31.3,23.5,06.3,0000.0,0002.91,0001.70,0001.27
2021-12-11 00:52:00,,0820.8,5.01,0.00,22.1,21.1,00.0,31.2,23.5,06.2,0000.0,0002.88,0001.70,0001.28
2021-12-11 00:53:00,,0820.9,4.99,0.00,22.0,21.0,00.0,31.2,23.4,06.3,0000.0,0003.01,0001.73,0001.28
2021-12-11 00:54:00,,0820.9,5.01,0.00,22.0,20.9,00.0,31.2,23.4,06.3,0000.0,0003.04,0001.74,0001.30
2021-12-11 00:55:00,,0820.8,5.00,0.00,22.0,21.3,00.0,31.2,23.5,06.3,0000.0,0003.04,0001.74,0001.31
2021-12-11 00:56:00,,0820.8,4.99,0.00,22.1,22.1,00.0,31.2,23.9,06.2,0000.0,0002.98,0001.71,0001.31
2021-12-11 00:57:00,,0820.9,5.00,0.00,22.2,22.8,00.0,31.3,24.2,06.1,0000.0,0003.01,0001.75,0001.32
2021-12-11 00:58:00,,0820.9,5.00,0.00,22.4,23.1,00.0,31.3,24.3,06.1,0000.0,0003.07,0001.77,0001.32
2021-12-11 00:59:00,,0821.0,5.00,0.00,22.4,22.7,00.0,31.3,24.2,06.1,0000.0,0003.23,0001.79,0001.32
